| time (UTC) | temp C | wind direction | speed KPH | gust KPH | rain 1hr cm | rain 24hr cm | rain mn cm | humidity % | barometer mb |
| 20260507222534 | 8 | 197 | 3.2 | 8.0 | 0.00 | 0.00 | 0.00 | 80 | 1014.5 |
| 20260507222035 | 8 | 195 | 4.8 | 8.0 | 0.00 | 0.00 | 0.00 | 79 | 1014.6 |
| 20260507221542 | 8 | 190 | 3.2 | 8.0 | 0.00 | 0.00 | 0.00 | 79 | 1014.5 |
| 20260507221034 | 8 | 185 | 3.2 | 8.0 | 0.00 | 0.00 | 0.00 | 79 | 1014.4 |
| 20260507220539 | 8 | 201 | 4.8 | 9.7 | 0.00 | 0.00 | 0.00 | 79 | 1014.4 |
| 20260507220048 | 9 | 194 | 4.8 | 9.7 | 0.00 | 0.00 | 0.00 | 78 | 1014.5 |
| 20260507215535 | 9 | 203 | 4.8 | 9.7 | 0.00 | 0.00 | 0.00 | 78 | 1014.4 |
| 20260507215035 | 9 | 193 | 4.8 | 9.7 | 0.00 | 0.00 | 0.00 | 78 | 1014.4 |
| 20260507214549 | 9 | 200 | 4.8 | 8.0 | 0.00 | 0.00 | 0.00 | 78 | 1014.4 |
| 20260507214034 | 9 | 170 | 4.8 | 8.0 | 0.00 | 0.00 | 0.00 | 78 | 1014.4 |
| 20260507213534 | 10 | 210 | 0.0 | 3.2 | 0.00 | 0.00 | 0.00 | 78 | 1014.4 |
| 20260507213047 | 10 | 0 | 0.0 | 9.7 | 0.00 | 0.00 | 0.00 | 78 | 1014.4 |
| 20260507212534 | 10 | 223 | 3.2 | 9.7 | 0.00 | 0.00 | 0.00 | 78 | 1014.5 |
| 20260507212038 | 10 | 189 | 4.8 | 9.7 | 0.00 | 0.00 | 0.00 | 78 | 1014.4 |
| 20260507211550 | 10 | 191 | 6.4 | 9.7 | 0.00 | 0.00 | 0.00 | 78 | 1014.3 |
| 20260507211033 | 10 | 192 | 6.4 | 12.9 | 0.00 | 0.00 | 0.00 | 78 | 1014.5 |
| 20260507210534 | 10 | 178 | 6.4 | 12.9 | 0.00 | 0.00 | 0.00 | 78 | 1014.5 |
| 20260507210048 | 10 | 187 | 6.4 | 12.9 | 0.00 | 0.00 | 0.00 | 77 | 1014.5 |
| 20260507205535 | 10 | 206 | 4.8 | 11.3 | 0.00 | 0.00 | 0.00 | 77 | 1014.5 |
| 20260507205033 | 10 | 191 | 4.8 | 11.3 | 0.00 | 0.00 | 0.00 | 77 | 1014.4 |
| 20260507204550 | 10 | 201 | 4.8 | 11.3 | 0.00 | 0.00 | 0.00 | 77 | 1014.4 |
| 20260507204034 | 10 | 220 | 4.8 | 11.3 | 0.00 | 0.00 | 0.00 | 77 | 1014.3 |
| 20260507203535 | 10 | 163 | 4.8 | 11.3 | 0.00 | 0.00 | 0.00 | 76 | 1014.3 |
| 20260507203052 | 10 | 164 | 3.2 | 14.5 | 0.00 | 0.00 | 0.00 | 76 | 1014.3 |
| 20260507202536 | 10 | 198 | 6.4 | 14.5 | 0.00 | 0.00 | 0.00 | 76 | 1014.2 |
| 20260507202034 | 10 | 207 | 8.0 | 12.9 | 0.00 | 0.00 | 0.00 | 76 | 1014.2 |
| 20260507201547 | 10 | 174 | 4.8 | 14.5 | 0.00 | 0.00 | 0.00 | 76 | 1014.1 |
| 20260507201034 | 10 | 210 | 4.8 | 14.5 | 0.00 | 0.00 | 0.00 | 75 | 1014.1 |
| 20260507200535 | 10 | 187 | 4.8 | 14.5 | 0.00 | 0.00 | 0.00 | 75 | 1014.1 |
| 20260507200047 | 10 | 142 | 4.8 | 12.9 | 0.00 | 0.00 | 0.00 | 75 | 1014.1 |
| 20260507195534 | 10 | 199 | 4.8 | 9.7 | 0.00 | 0.00 | 0.00 | 75 | 1014.1 |
| 20260507195034 | 10 | 165 | 3.2 | 9.7 | 0.00 | 0.00 | 0.00 | 74 | 1014.1 |
| 20260507194544 | 10 | 210 | 4.8 | 8.0 | 0.00 | 0.00 | 0.00 | 74 | 1014.1 |
| 20260507194034 | 10 | 207 | 1.6 | 11.3 | 0.00 | 0.00 | 0.00 | 74 | 1014.1 |
| 20260507193534 | 10 | 178 | 3.2 | 12.9 | 0.00 | 0.00 | 0.00 | 74 | 1014.0 |
| 20260507193054 | 10 | 195 | 6.4 | 12.9 | 0.00 | 0.00 | 0.00 | 74 | 1014.0 |
| 20260507192534 | 11 | 196 | 1.6 | 6.4 | 0.00 | 0.00 | 0.00 | 73 | 1014.0 |
| 20260507192034 | 11 | 117 | 0.0 | 11.3 | 0.00 | 0.00 | 0.00 | 73 | 1014.0 |
| 20260507191547 | 11 | 186 | 4.8 | 11.3 | 0.00 | 0.00 | 0.00 | 73 | 1013.9 |
| 20260507191036 | 11 | 186 | 4.8 | 11.3 | 0.00 | 0.00 | 0.00 | 73 | 1013.9 |
| 20260507190534 | 11 | 161 | 4.8 | 9.7 | 0.00 | 0.00 | 0.00 | 73 | 1013.9 |
| 20260507190049 | 11 | 193 | 3.2 | 9.7 | 0.00 | 0.00 | 0.00 | 73 | 1014.0 |
| 20260507185534 | 11 | 213 | 3.2 | 8.0 | 0.00 | 0.00 | 0.00 | 72 | 1013.9 |
| 20260507185034 | 11 | 152 | 3.2 | 9.7 | 0.00 | 0.00 | 0.00 | 72 | 1014.0 |
| 20260507184549 | 11 | 178 | 3.2 | 11.3 | 0.00 | 0.00 | 0.00 | 72 | 1013.9 |
| 20260507184037 | 11 | 206 | 3.2 | 12.9 | 0.00 | 0.00 | 0.00 | 72 | 1013.9 |
| 20260507183534 | 11 | 186 | 6.4 | 16.1 | 0.00 | 0.00 | 0.00 | 71 | 1013.9 |
| 20260507183045 | 11 | 213 | 8.0 | 16.1 | 0.00 | 0.00 | 0.00 | 71 | 1014.0 |
| 20260507182535 | 11 | 152 | 8.0 | 14.5 | 0.00 | 0.00 | 0.00 | 71 | 1014.0 |
| 20260507182107 | 11 | 191 | 8.0 | 19.3 | 0.00 | 0.00 | 0.00 | 71 | 1013.8 |
| 20260507181543 | 11 | 198 | 9.7 | 19.3 | 0.00 | 0.00 | 0.00 | 70 | 1013.8 |
| 20260507181034 | 11 | 178 | 8.0 | 22.5 | 0.00 | 0.00 | 0.00 | 70 | 1013.9 |
| 20260507180534 | 12 | 204 | 9.7 | 22.5 | 0.00 | 0.00 | 0.00 | 70 | 1013.9 |
| 20260507180050 | 12 | 178 | 11.3 | 24.1 | 0.00 | 0.00 | 0.00 | 69 | 1013.8 |
| 20260507175533 | 12 | 195 | 11.3 | 24.1 | 0.00 | 0.00 | 0.00 | 69 | 1013.8 |
| 20260507175034 | 12 | 209 | 11.3 | 22.5 | 0.00 | 0.00 | 0.00 | 69 | 1013.9 |
| 20260507174617 | 12 | 207 | 11.3 | 22.5 | 0.00 | 0.00 | 0.00 | 70 | 1013.8 |
| 20260507174034 | 12 | 181 | 9.7 | 22.5 | 0.00 | 0.00 | 0.00 | 69 | 1013.9 |
| 20260507173534 | 12 | 193 | 11.3 | 22.5 | 0.00 | 0.00 | 0.00 | 69 | 1013.7 |
| 20260507173048 | 12 | 196 | 8.0 | 22.5 | 0.00 | 0.00 | 0.00 | 69 | 1013.9 |
| 20260507172534 | 12 | 190 | 12.9 | 22.5 | 0.00 | 0.00 | 0.00 | 68 | 1013.9 |
| 20260507172034 | 12 | 185 | 9.7 | 19.3 | 0.00 | 0.00 | 0.00 | 68 | 1013.8 |
| 20260507171605 | 13 | 199 | 11.3 | 22.5 | 0.00 | 0.00 | 0.00 | 67 | 1013.9 |
| 20260507171034 | 13 | 194 | 9.7 | 22.5 | 0.00 | 0.00 | 0.00 | 67 | 1013.8 |
| 20260507170535 | 13 | 187 | 11.3 | 20.9 | 0.00 | 0.00 | 0.00 | 68 | 1013.8 |
| 20260507170057 | 13 | 165 | 9.7 | 19.3 | 0.00 | 0.00 | 0.00 | 68 | 1013.9 |
| 20260507165537 | 13 | 212 | 8.0 | 19.3 | 0.00 | 0.00 | 0.00 | 69 | 1013.9 |
| 20260507165031 | 13 | 193 | 11.3 | 22.5 | 0.00 | 0.00 | 0.00 | 69 | 1013.9 |
| 20260507164552 | 13 | 187 | 9.7 | 22.5 | 0.00 | 0.00 | 0.00 | 68 | 1013.9 |
| 20260507164031 | 13 | 162 | 11.3 | 19.3 | 0.00 | 0.00 | 0.00 | 69 | 1013.9 |
| 20260507163537 | 13 | 201 | 8.0 | 16.1 | 0.00 | 0.00 | 0.00 | 70 | 1013.9 |
| 20260507163048 | 12 | 199 | 8.0 | 17.7 | 0.00 | 0.00 | 0.00 | 69 | 1013.9 |
| 20260507162534 | 12 | 201 | 11.3 | 20.9 | 0.00 | 0.00 | 0.00 | 68 | 1013.9 |
| 20260507162031 | 12 | 171 | 11.3 | 20.9 | 0.00 | 0.00 | 0.00 | 68 | 1014.0 |
| 20260507161552 | 13 | 202 | 11.3 | 22.5 | 0.00 | 0.00 | 0.00 | 68 | 1013.9 |
| 20260507161033 | 13 | 206 | 12.9 | 22.5 | 0.00 | 0.00 | 0.00 | 68 | 1013.9 |
| 20260507160535 | 13 | 198 | 14.5 | 22.5 | 0.00 | 0.00 | 0.00 | 68 | 1014.0 |
| 20260507160110 | 13 | 213 | 9.7 | 22.5 | 0.00 | 0.00 | 0.00 | 68 | 1014.0 |
| 20260507155531 | 13 | 200 | 9.7 | 22.5 | 0.00 | 0.00 | 0.00 | 68 | 1014.0 |
| 20260507155032 | 12 | 165 | 9.7 | 17.7 | 0.00 | 0.00 | 0.00 | 69 | 1014.0 |
| 20260507154551 | 12 | 204 | 9.7 | 17.7 | 0.00 | 0.00 | 0.00 | 69 | 1014.0 |
| 20260507154032 | 12 | 222 | 8.0 | 17.7 | 0.00 | 0.00 | 0.00 | 69 | 1014.1 |
| 20260507153534 | 12 | 202 | 4.8 | 19.3 | 0.00 | 0.00 | 0.00 | 70 | 1014.1 |
| 20260507153044 | 12 | 202 | 6.4 | 19.3 | 0.00 | 0.00 | 0.00 | 70 | 1014.2 |
| 20260507152533 | 12 | 148 | 6.4 | 16.1 | 0.00 | 0.00 | 0.00 | 70 | 1014.1 |
| 20260507152036 | 12 | 192 | 4.8 | 16.1 | 0.00 | 0.00 | 0.00 | 70 | 1014.1 |
| 20260507151555 | 12 | 200 | 6.4 | 17.7 | 0.00 | 0.00 | 0.00 | 70 | 1014.2 |
| 20260507151035 | 12 | 189 | 9.7 | 17.7 | 0.00 | 0.00 | 0.00 | 70 | 1014.2 |
| 20260507150536 | 12 | 190 | 6.4 | 17.7 | 0.00 | 0.00 | 0.00 | 70 | 1014.2 |
| 20260507150051 | 12 | 202 | 8.0 | 17.7 | 0.00 | 0.00 | 0.00 | 69 | 1014.3 |
| 20260507145539 | 12 | 172 | 8.0 | 17.7 | 0.00 | 0.00 | 0.00 | 70 | 1014.5 |
| 20260507145032 | 12 | 223 | 8.0 | 17.7 | 0.00 | 0.00 | 0.00 | 69 | 1014.3 |
| 20260507144551 | 12 | 199 | 9.7 | 17.7 | 0.00 | 0.00 | 0.00 | 70 | 1014.4 |
| 20260507144036 | 12 | 254 | 6.4 | 19.3 | 0.00 | 0.00 | 0.00 | 69 | 1014.4 |
| 20260507143536 | 12 | 178 | 11.3 | 20.9 | 0.00 | 0.00 | 0.00 | 70 | 1014.5 |
| 20260507143052 | 12 | 234 | 9.7 | 20.9 | 0.00 | 0.00 | 0.00 | 70 | 1014.5 |
| 20260507142536 | 12 | 198 | 8.0 | 20.9 | 0.00 | 0.00 | 0.00 | 71 | 1014.6 |
| 20260507142036 | 12 | 205 | 8.0 | 20.9 | 0.00 | 0.00 | 0.00 | 71 | 1014.5 |
| 20260507141547 | 12 | 189 | 11.3 | 20.9 | 0.00 | 0.00 | 0.00 | 71 | 1014.6 |
| 20260507141036 | 12 | 193 | 11.3 | 19.3 | 0.00 | 0.00 | 0.00 | 71 | 1014.6 |
| 20260507140536 | 12 | 185 | 9.7 | 19.3 | 0.00 | 0.00 | 0.00 | 71 | 1014.7 |
| 20260507140053 | 12 | 181 | 11.3 | 19.3 | 0.00 | 0.00 | 0.00 | 70 | 1014.7 |
| 20260507135538 | 12 | 190 | 9.7 | 17.7 | 0.00 | 0.00 | 0.00 | 70 | 1014.6 |
| 20260507135037 | 12 | 189 | 9.7 | 19.3 | 0.00 | 0.00 | 0.00 | 70 | 1014.7 |
| 20260507134544 | 12 | 193 | 9.7 | 19.3 | 0.00 | 0.00 | 0.00 | 69 | 1014.5 |
| 20260507134035 | 12 | 219 | 9.7 | 17.7 | 0.00 | 0.00 | 0.00 | 69 | 1014.7 |
| 20260507133536 | 12 | 189 | 11.3 | 20.9 | 0.00 | 0.00 | 0.00 | 68 | 1014.7 |
| 20260507133057 | 12 | 217 | 9.7 | 22.5 | 0.00 | 0.00 | 0.00 | 67 | 1014.7 |
| 20260507132535 | 12 | 195 | 6.4 | 22.5 | 0.00 | 0.00 | 0.00 | 67 | 1014.7 |
| 20260507132035 | 12 | 198 | 11.3 | 22.5 | 0.00 | 0.00 | 0.00 | 67 | 1014.7 |
| 20260507131613 | 12 | 161 | 6.4 | 20.9 | 0.00 | 0.00 | 0.00 | 65 | 1014.8 |
| 20260507131038 | 12 | 200 | 3.2 | 11.3 | 0.00 | 0.00 | 0.00 | 67 | 1014.7 |
| 20260507130535 | 12 | 0 | 1.6 | 11.3 | 0.00 | 0.00 | 0.00 | 67 | 1014.6 |
| 20260507130047 | 12 | 287 | 3.2 | 8.0 | 0.00 | 0.00 | 0.00 | 68 | 1014.6 |
| 20260507125537 | 12 | 1 | 1.6 | 9.7 | 0.00 | 0.00 | 0.00 | 67 | 1014.7 |
| 20260507125035 | 12 | 18 | 3.2 | 9.7 | 0.00 | 0.00 | 0.00 | 68 | 1014.7 |
| 20260507124553 | 12 | 346 | 4.8 | 9.7 | 0.00 | 0.00 | 0.00 | 69 | 1014.7 |
| 20260507124036 | 12 | 13 | 4.8 | 9.7 | 0.00 | 0.00 | 0.00 | 68 | 1014.7 |
| 20260507123536 | 12 | 336 | 3.2 | 9.7 | 0.00 | 0.00 | 0.00 | 67 | 1014.7 |
| 20260507123047 | 12 | 1 | 4.8 | 11.3 | 0.00 | 0.00 | 0.00 | 67 | 1014.7 |
| 20260507122536 | 12 | 336 | 4.8 | 11.3 | 0.00 | 0.00 | 0.00 | 67 | 1014.5 |
| 20260507122040 | 12 | 335 | 6.4 | 11.3 | 0.00 | 0.00 | 0.00 | 66 | 1014.7 |
| 20260507121552 | 12 | 1 | 3.2 | 8.0 | 0.00 | 0.00 | 0.00 | 66 | 1014.7 |
| 20260507121036 | 12 | 1 | 4.8 | 8.0 | 0.00 | 0.00 | 0.00 | 68 | 1014.7 |
| 20260507120533 | 12 | 331 | 1.6 | 8.0 | 0.00 | 0.00 | 0.00 | 70 | 1014.6 |
| 20260507120045 | 12 | 314 | 1.6 | 8.0 | 0.00 | 0.00 | 0.00 | 65 | 1014.8 |
| 20260507115534 | 12 | 269 | 1.6 | 14.5 | 0.00 | 0.00 | 0.00 | 63 | 1014.9 |
| 20260507115033 | 13 | 223 | 1.6 | 14.5 | 0.00 | 0.00 | 0.00 | 62 | 1014.8 |
| 20260507114548 | 13 | 269 | 4.8 | 14.5 | 0.00 | 0.00 | 0.00 | 64 | 1014.7 |
| 20260507114037 | 13 | 190 | 3.2 | 11.3 | 0.00 | 0.00 | 0.00 | 63 | 1014.7 |
| 20260507113535 | 13 | 178 | 3.2 | 11.3 | 0.00 | 0.00 | 0.00 | 64 | 1014.6 |
| 20260507113109 | 13 | 130 | 3.2 | 8.0 | 0.00 | 0.00 | 0.00 | 66 | 1014.7 |
| 20260507112533 | 13 | 0 | 3.2 | 8.0 | 0.00 | 0.00 | 0.00 | 63 | 1014.8 |
| 20260507112034 | 13 | 259 | 1.6 | 12.9 | 0.00 | 0.00 | 0.00 | 65 | 1014.9 |
| 20260507111547 | 13 | 241 | 3.2 | 12.9 | 0.00 | 0.00 | 0.00 | 66 | 1014.7 |
| 20260507111030 | 13 | 178 | 3.2 | 12.9 | 0.00 | 0.00 | 0.00 | 69 | 1014.7 |
| 20260507110533 | 13 | 193 | 4.8 | 12.9 | 0.00 | 0.00 | 0.00 | 70 | 1014.8 |
| 20260507110047 | 12 | 157 | 3.2 | 11.3 | 0.00 | 0.00 | 0.00 | 70 | 1014.9 |
| 20260507105534 | 12 | 214 | 4.8 | 12.9 | 0.00 | 0.00 | 0.00 | 69 | 1014.9 |
| 20260507105034 | 12 | 122 | 3.2 | 12.9 | 0.00 | 0.00 | 0.00 | 70 | 1014.9 |
| 20260507104554 | 12 | 167 | 4.8 | 17.7 | 0.00 | 0.00 | 0.00 | 70 | 1014.9 |
| 20260507104033 | 12 | 178 | 4.8 | 17.7 | 0.00 | 0.00 | 0.00 | 71 | 1015.0 |
| 20260507103533 | 12 | 170 | 8.0 | 17.7 | 0.00 | 0.00 | 0.00 | 70 | 1015.0 |
| 20260507103042 | 12 | 191 | 8.0 | 17.7 | 0.00 | 0.00 | 0.00 | 71 | 1015.0 |
| 20260507102535 | 12 | 206 | 4.8 | 14.5 | 0.00 | 0.00 | 0.00 | 71 | 1015.0 |
| 20260507102034 | 12 | 210 | 3.2 | 17.7 | 0.00 | 0.00 | 0.00 | 71 | 1015.0 |
| 20260507101542 | 11 | 156 | 3.2 | 17.7 | 0.00 | 0.00 | 0.00 | 72 | 1015.0 |
| 20260507101033 | 11 | 220 | 6.4 | 14.5 | 0.00 | 0.00 | 0.00 | 72 | 1014.9 |
| 20260507100533 | 11 | 178 | 3.2 | 20.9 | 0.00 | 0.00 | 0.00 | 72 | 1014.9 |
| 20260507100057 | 11 | 175 | 6.4 | 20.9 | 0.00 | 0.00 | 0.00 | 72 | 1014.9 |
| 20260507095536 | 11 | 187 | 6.4 | 20.9 | 0.00 | 0.00 | 0.00 | 72 | 1014.7 |
| 20260507095037 | 11 | 0 | 6.4 | 16.1 | 0.00 | 0.00 | 0.00 | 73 | 1014.8 |
| 20260507094547 | 11 | 198 | 4.8 | 14.5 | 0.00 | 0.00 | 0.00 | 73 | 1014.7 |
| 20260507094036 | 11 | 202 | 6.4 | 14.5 | 0.00 | 0.00 | 0.00 | 73 | 1014.7 |
| 20260507093533 | 11 | 191 | 4.8 | 14.5 | 0.00 | 0.00 | 0.00 | 72 | 1014.7 |
| 20260507093045 | 11 | 156 | 3.2 | 12.9 | 0.00 | 0.00 | 0.00 | 71 | 1014.6 |
| 20260507092533 | 11 | 182 | 3.2 | 19.3 | 0.00 | 0.00 | 0.00 | 72 | 1014.7 |
| 20260507092037 | 11 | 174 | 4.8 | 19.3 | 0.00 | 0.00 | 0.00 | 73 | 1014.7 |
| 20260507091552 | 11 | 141 | 4.8 | 12.9 | 0.00 | 0.00 | 0.00 | 72 | 1014.7 |
| 20260507091036 | 11 | 135 | 4.8 | 17.7 | 0.00 | 0.00 | 0.00 | 72 | 1014.8 |
| 20260507090533 | 11 | 184 | 3.2 | 19.3 | 0.00 | 0.00 | 0.00 | 72 | 1014.9 |
| 20260507090042 | 11 | 185 | 4.8 | 19.3 | 0.00 | 0.00 | 0.00 | 71 | 1014.9 |
| 20260507085533 | 11 | 174 | 8.0 | 17.7 | 0.00 | 0.00 | 0.00 | 71 | 1014.9 |
| 20260507085036 | 11 | 195 | 6.4 | 17.7 | 0.00 | 0.00 | 0.00 | 71 | 1015.0 |
| 20260507084557 | 11 | 195 | 4.8 | 16.1 | 0.00 | 0.00 | 0.00 | 72 | 1014.9 |
| 20260507084034 | 11 | 150 | 4.8 | 16.1 | 0.00 | 0.00 | 0.00 | 70 | 1014.8 |
| 20260507083533 | 11 | 174 | 4.8 | 24.1 | 0.00 | 0.00 | 0.00 | 70 | 1014.9 |
| 20260507083049 | 11 | 207 | 6.4 | 24.1 | 0.00 | 0.00 | 0.00 | 70 | 1014.8 |
| 20260507082534 | 11 | 182 | 4.8 | 25.7 | 0.00 | 0.00 | 0.00 | 69 | 1014.8 |
| 20260507082034 | 11 | 135 | 8.0 | 25.7 | 0.00 | 0.00 | 0.00 | 70 | 1014.7 |
| 20260507081547 | 11 | 135 | 6.4 | 19.3 | 0.00 | 0.00 | 0.00 | 70 | 1014.8 |
| 20260507081034 | 11 | 269 | 6.4 | 22.5 | 0.00 | 0.00 | 0.00 | 70 | 1014.8 |
| 20260507080533 | 11 | 189 | 6.4 | 22.5 | 0.00 | 0.00 | 0.00 | 72 | 1014.7 |
| 20260507080054 | 10 | 135 | 8.0 | 22.5 | 0.00 | 0.00 | 0.00 | 72 | 1014.7 |
| 20260507075538 | 10 | 168 | 6.4 | 17.7 | 0.00 | 0.00 | 0.00 | 73 | 1014.8 |
| 20260507075034 | 10 | 195 | 6.4 | 16.1 | 0.00 | 0.00 | 0.00 | 72 | 1014.8 |
| 20260507074554 | 10 | 274 | 4.8 | 19.3 | 0.00 | 0.00 | 0.00 | 72 | 1014.9 |
| 20260507074033 | 10 | 186 | 6.4 | 19.3 | 0.00 | 0.00 | 0.00 | 73 | 1014.9 |
| 20260507073534 | 9 | 197 | 6.4 | 17.7 | 0.00 | 0.00 | 0.00 | 74 | 1014.9 |
| 20260507073047 | 9 | 192 | 6.4 | 17.7 | 0.00 | 0.00 | 0.00 | 74 | 1014.9 |
| 20260507072534 | 8 | 197 | 6.4 | 17.7 | 0.00 | 0.00 | 0.00 | 74 | 1015.0 |
| 20260507072035 | 8 | 157 | 4.8 | 14.5 | 0.00 | 0.00 | 0.00 | 76 | 1015.0 |
| 20260507071549 | 8 | 201 | 4.8 | 14.5 | 0.00 | 0.00 | 0.00 | 76 | 1015.0 |
| 20260507071034 | 8 | 152 | 4.8 | 14.5 | 0.00 | 0.00 | 0.00 | 77 | 1015.0 |
| 20260507070534 | 7 | 360 | 3.2 | 14.5 | 0.00 | 0.00 | 0.00 | 77 | 1015.0 |
| 20260507065536 | 7 | 28 | 3.2 | 9.7 | 0.00 | 0.00 | 0.00 | 79 | 1015.1 |
| 20260507065036 | 6 | 190 | 3.2 | 12.9 | 0.00 | 0.00 | 0.00 | 79 | 1015.0 |
| 20260507064548 | 6 | 187 | 3.2 | 12.9 | 0.00 | 0.00 | 0.00 | 79 | 1015.1 |
| 20260507064034 | 6 | 135 | 3.2 | 11.3 | 0.00 | 0.00 | 0.00 | 80 | 1015.1 |
| 20260507063534 | 6 | 171 | 3.2 | 9.7 | 0.00 | 0.00 | 0.00 | 81 | 1015.1 |
| 20260507063052 | 6 | 206 | 3.2 | 9.7 | 0.00 | 0.00 | 0.00 | 82 | 1015.0 |
| 20260507062535 | 5 | 238 | 1.6 | 9.7 | 0.00 | 0.00 | 0.00 | 82 | 1015.1 |
| 20260507062034 | 5 | 178 | 1.6 | 9.7 | 0.00 | 0.00 | 0.00 | 82 | 1015.1 |
| 20260507061542 | 5 | 197 | 1.6 | 6.4 | 0.00 | 0.00 | 0.00 | 82 | 1015.2 |
| 20260507061033 | 5 | 46 | 1.6 | 6.4 | 0.00 | 0.00 | 0.00 | 82 | 1015.2 |
| 20260507060533 | 5 | 124 | 1.6 | 6.4 | 0.00 | 0.00 | 0.00 | 82 | 1015.1 |
| 20260507060053 | 5 | 0 | 1.6 | 6.4 | 0.00 | 0.00 | 0.00 | 81 | 1015.1 |
| 20260507055534 | 5 | 56 | 1.6 | 6.4 | 0.00 | 0.00 | 0.00 | 81 | 1015.1 |
| 20260507055033 | 5 | 165 | 0.0 | 6.4 | 0.00 | 0.00 | 0.00 | 80 | 1015.2 |
| 20260507054548 | 5 | 213 | 0.0 | 4.8 | 0.00 | 0.00 | 0.00 | 80 | 1015.2 |
| 20260507054033 | 5 | 178 | 0.0 | 4.8 | 0.00 | 0.00 | 0.00 | 79 | 1015.0 |
| 20260507053533 | 5 | 145 | 0.0 | 4.8 | 0.00 | 0.00 | 0.00 | 79 | 1015.1 |
| 20260507053047 | 5 | 0 | 1.6 | 4.8 | 0.00 | 0.00 | 0.00 | 79 | 1015.1 |
| 20260507052533 | 5 | 206 | 1.6 | 8.0 | 0.00 | 0.00 | 0.00 | 79 | 1015.0 |
| 20260507052034 | 5 | 195 | 1.6 | 8.0 | 0.00 | 0.00 | 0.00 | 79 | 1015.0 |
| 20260507051559 | 5 | 178 | 1.6 | 4.8 | 0.00 | 0.00 | 0.00 | 79 | 1015.0 |
| 20260507051034 | 5 | 223 | 1.6 | 4.8 | 0.00 | 0.00 | 0.00 | 79 | 1014.9 |
| 20260507050535 | 5 | 127 | 0.0 | 4.8 | 0.00 | 0.00 | 0.00 | 79 | 1014.9 |
| 20260507050107 | 5 | 0 | 0.0 | 4.8 | 0.00 | 0.00 | 0.00 | 79 | 1014.9 |
| 20260507045534 | 5 | 195 | 1.6 | 6.4 | 0.00 | 0.00 | 0.00 | 79 | 1014.7 |
| 20260507045034 | 5 | 178 | 1.6 | 8.0 | 0.00 | 0.00 | 0.00 | 79 | 1014.9 |
| 20260507044553 | 5 | 89 | 1.6 | 8.0 | 0.00 | 0.00 | 0.00 | 79 | 1014.8 |
| 20260507044033 | 5 | 178 | 1.6 | 8.0 | 0.00 | 0.00 | 0.00 | 79 | 1014.7 |
| 20260507043533 | 5 | 197 | 1.6 | 9.7 | 0.00 | 0.00 | 0.00 | 79 | 1014.6 |
| 20260507043045 | 5 | 142 | 1.6 | 9.7 | 0.00 | 0.00 | 0.00 | 79 | 1014.6 |
| 20260507042536 | 5 | 159 | 3.2 | 9.7 | 0.00 | 0.00 | 0.00 | 79 | 1014.6 |
| 20260507042033 | 5 | 128 | 1.6 | 11.3 | 0.00 | 0.00 | 0.00 | 79 | 1014.6 |
| 20260507041548 | 5 | 254 | 3.2 | 12.9 | 0.00 | 0.00 | 0.00 | 79 | 1014.5 |
| 20260507041033 | 5 | 206 | 3.2 | 12.9 | 0.00 | 0.00 | 0.00 | 79 | 1014.5 |
| 20260507040535 | 5 | 126 | 3.2 | 12.9 | 0.00 | 0.00 | 0.00 | 79 | 1014.5 |
| 20260507040050 | 5 | 89 | 3.2 | 12.9 | 0.00 | 0.00 | 0.00 | 79 | 1014.5 |
| 20260507035535 | 5 | 108 | 3.2 | 11.3 | 0.00 | 0.00 | 0.00 | 78 | 1014.5 |
| 20260507035034 | 5 | 191 | 3.2 | 11.3 | 0.00 | 0.00 | 0.00 | 78 | 1014.5 |
| 20260507034547 | 5 | 135 | 3.2 | 11.3 | 0.00 | 0.00 | 0.00 | 78 | 1014.5 |
| 20260507034034 | 5 | 139 | 3.2 | 11.3 | 0.00 | 0.00 | 0.00 | 78 | 1014.5 |
| 20260507033534 | 5 | 165 | 3.2 | 11.3 | 0.00 | 0.00 | 0.00 | 78 | 1014.5 |
| 20260507033046 | 5 | 187 | 3.2 | 11.3 | 0.00 | 0.00 | 0.00 | 78 | 1014.6 |
| 20260507032533 | 5 | 165 | 3.2 | 12.9 | 0.00 | 0.00 | 0.00 | 78 | 1014.6 |
| 20260507032033 | 5 | 223 | 3.2 | 12.9 | 0.00 | 0.00 | 0.00 | 78 | 1014.7 |
| 20260507031543 | 5 | 0 | 3.2 | 12.9 | 0.00 | 0.00 | 0.00 | 78 | 1014.7 |
| 20260507031038 | 5 | 178 | 1.6 | 12.9 | 0.00 | 0.00 | 0.00 | 78 | 1014.8 |
| 20260507030533 | 5 | 143 | 3.2 | 12.9 | 0.00 | 0.00 | 0.00 | 78 | 1014.7 |
| 20260507030051 | 5 | 296 | 1.6 | 9.7 | 0.00 | 0.00 | 0.00 | 78 | 1014.9 |
| 20260507025533 | 5 | 56 | 1.6 | 9.7 | 0.00 | 0.00 | 0.00 | 78 | 1014.8 |
| 20260507025033 | 5 | 223 | 1.6 | 9.7 | 0.00 | 0.00 | 0.00 | 78 | 1014.9 |
| 20260507024549 | 5 | 296 | 1.6 | 9.7 | 0.00 | 0.00 | 0.00 | 78 | 1014.9 |
| 20260507024034 | 5 | 213 | 1.6 | 11.3 | 0.00 | 0.00 | 0.00 | 78 | 1014.9 |
| 20260507023534 | 5 | 23 | 3.2 | 11.3 | 0.00 | 0.00 | 0.00 | 78 | 1014.9 |
| 20260507023048 | 5 | 178 | 3.2 | 11.3 | 0.00 | 0.00 | 0.00 | 78 | 1014.9 |
| 20260507022534 | 5 | 159 | 3.2 | 11.3 | 0.00 | 0.00 | 0.00 | 78 | 1014.9 |
| 20260507022034 | 5 | 135 | 3.2 | 11.3 | 0.00 | 0.00 | 0.00 | 78 | 1015.0 |
| 20260507021559 | 5 | 203 | 1.6 | 9.7 | 0.00 | 0.00 | 0.00 | 78 | 1015.0 |
| 20260507021035 | 5 | 0 | 3.2 | 16.1 | 0.00 | 0.00 | 0.00 | 78 | 1014.9 |
| 20260507020534 | 5 | 231 | 3.2 | 16.1 | 0.00 | 0.00 | 0.00 | 78 | 1015.1 |
| 20260507020047 | 5 | 149 | 3.2 | 12.9 | 0.00 | 0.00 | 0.00 | 78 | 1015.0 |
| 20260507015536 | 5 | 89 | 3.2 | 12.9 | 0.00 | 0.00 | 0.00 | 78 | 1015.0 |
| 20260507015034 | 5 | 135 | 3.2 | 12.9 | 0.00 | 0.00 | 0.00 | 78 | 1015.0 |
| 20260507014551 | 5 | 206 | 3.2 | 11.3 | 0.00 | 0.00 | 0.00 | 78 | 1015.0 |
| 20260507014036 | 5 | 110 | 3.2 | 11.3 | 0.00 | 0.00 | 0.00 | 77 | 1015.1 |
| 20260507013534 | 5 | 197 | 3.2 | 17.7 | 0.00 | 0.00 | 0.00 | 77 | 1015.1 |
| 20260507013050 | 5 | 143 | 3.2 | 17.7 | 0.00 | 0.00 | 0.00 | 77 | 1015.1 |
| 20260507012535 | 5 | 189 | 3.2 | 12.9 | 0.00 | 0.00 | 0.00 | 77 | 1015.2 |
| 20260507012034 | 5 | 181 | 3.2 | 11.3 | 0.00 | 0.00 | 0.00 | 78 | 1015.1 |
| 20260507011550 | 5 | 159 | 3.2 | 11.3 | 0.00 | 0.00 | 0.00 | 78 | 1015.1 |
| 20260507011033 | 5 | 233 | 3.2 | 11.3 | 0.00 | 0.00 | 0.00 | 78 | 1015.2 |
| 20260507010533 | 5 | 206 | 3.2 | 12.9 | 0.00 | 0.00 | 0.00 | 78 | 1015.2 |
| 20260507010047 | 5 | 182 | 3.2 | 12.9 | 0.00 | 0.00 | 0.00 | 78 | 1015.2 |
| 20260507005535 | 5 | 117 | 3.2 | 14.5 | 0.00 | 0.00 | 0.00 | 79 | 1015.3 |
| 20260507005037 | 5 | 148 | 4.8 | 19.3 | 0.00 | 0.00 | 0.00 | 79 | 1015.2 |
| 20260507004550 | 5 | 181 | 4.8 | 19.3 | 0.00 | 0.00 | 0.00 | 79 | 1015.4 |
| 20260507004035 | 5 | 174 | 4.8 | 19.3 | 0.00 | 0.00 | 0.00 | 79 | 1015.2 |
| 20260507003534 | 5 | 186 | 3.2 | 9.7 | 0.00 | 0.00 | 0.00 | 79 | 1015.2 |
| 20260507003047 | 5 | 142 | 4.8 | 11.3 | 0.00 | 0.00 | 0.00 | 79 | 1015.3 |
| 20260507002534 | 5 | 178 | 4.8 | 11.3 | 0.00 | 0.00 | 0.00 | 80 | 1015.4 |
| 20260507002034 | 5 | 161 | 3.2 | 9.7 | 0.00 | 0.00 | 0.00 | 80 | 1015.4 |
| 20260507001543 | 5 | 159 | 1.6 | 6.4 | 0.00 | 0.00 | 0.00 | 80 | 1015.3 |
| 20260507001033 | 5 | 203 | 1.6 | 8.0 | 0.00 | 0.00 | 0.00 | 81 | 1015.3 |
| 20260507000536 | 4 | 269 | 1.6 | 9.7 | 0.00 | 0.00 | 0.00 | 81 | 1015.4 |
| 20260507000054 | 4 | 117 | 1.6 | 9.7 | 0.00 | 0.00 | 0.00 | 81 | 1015.4 |
| 20260506235534 | 4 | 193 | 1.6 | 9.7 | 0.00 | 0.00 | 0.00 | 81 | 1015.4 |
| 20260506235033 | 4 | 199 | 3.2 | 8.0 | 0.00 | 0.00 | 0.00 | 81 | 1015.5 |
| 20260506234555 | 4 | 46 | 1.6 | 9.7 | 0.00 | 0.00 | 0.00 | 80 | 1015.5 |
| 20260506234034 | 4 | 269 | 1.6 | 9.7 | 0.00 | 0.00 | 0.00 | 80 | 1015.4 |
| 20260506233534 | 4 | 168 | 1.6 | 6.4 | 0.00 | 0.00 | 0.00 | 80 | 1015.4 |
| 20260506233049 | 4 | 122 | 1.6 | 6.4 | 0.00 | 0.00 | 0.00 | 80 | 1015.4 |
| 20260506232533 | 4 | 148 | 1.6 | 6.4 | 0.00 | 0.00 | 0.00 | 79 | 1015.5 |
| 20260506232033 | 4 | 145 | 1.6 | 8.0 | 0.00 | 0.00 | 0.00 | 79 | 1015.5 |
| 20260506231547 | 4 | 213 | 1.6 | 8.0 | 0.00 | 0.00 | 0.00 | 79 | 1015.5 |
| 20260506231034 | 4 | 218 | 1.6 | 8.0 | 0.00 | 0.00 | 0.00 | 79 | 1015.5 |
| 20260506230533 | 4 | 178 | 3.2 | 8.0 | 0.00 | 0.00 | 0.00 | 78 | 1015.5 |
| 20260506230048 | 5 | 89 | 3.2 | 8.0 | 0.00 | 0.00 | 0.00 | 78 | 1015.5 |
| 20260506225534 | 5 | 89 | 1.6 | 8.0 | 0.00 | 0.00 | 0.00 | 78 | 1015.5 |
| 20260506225035 | 5 | 157 | 1.6 | 11.3 | 0.00 | 0.00 | 0.00 | 78 | 1015.6 |
| 20260506224546 | 5 | 0 | 3.2 | 11.3 | 0.00 | 0.00 | 0.00 | 78 | 1015.6 |
| 20260506224033 | 5 | 188 | 4.8 | 14.5 | 0.00 | 0.00 | 0.00 | 78 | 1015.7 |
| 20260506223533 | 5 | 201 | 4.8 | 14.5 | 0.00 | 0.00 | 0.00 | 78 | 1015.6 |
| 20260506223050 | 5 | 185 | 6.4 | 14.5 | 0.00 | 0.00 | 0.00 | 77 | 1015.7 |